Terminal Aerodrome Forecast
Issued by NWS

Home | Current Version | Previous Version | Text Only | Print | Product List | Glossary On
Versions: 1 2 3 4 5 6 7 8 9 10 11 12 13 14 15 16 17 18 19 20 21 22 23 24 25 26 27 28 29 30 31 32 33 34 35 36 37 38 39 40 41 42 43 44 45 46 47 48 49 50
000
FTUS41 KCTP 201122
TAFJST
TAF
KJST 201122Z 2012/2112 17008G14KT P6SM SCT045 SCT060 WS016/18036KT
     FM201300 19010G18KT P6SM BKN050
     FM201600 22011G18KT P6SM BKN050
     FM202200 18009G15KT P6SM BKN035=

USA.gov is the U.S. government's official web portal to all federal, state and local government web resources and services.